User: anonymous   Login
Location: *
(17.3280°S, 114.7300°W)
Time: 12:27:59
(UTC+00:00)
Language:

Cosmos 1328 - Orbit

View from above orbital plane
View from above orbital plane
View from above satellite
View from above satellite

Ground track
Ground track

The orbit data is extracted from the following two-line orbital elements,

1 12987U 81117A   20293.65670855 -.00000006 +00000-0 -23142-5 0  9998
2 12987 082.5168 132.4782 0010919 116.8049 243.4297 15.08170424116400
Epoch (UTC): 19 October 2020 15:45:39
Eccentricity: 0.0010919
inclination: 82.5168°
perigee height: 534 km
apogee height: 549 km
right ascension of ascending node: 132.4782°
argument of perigee: 116.8049°
revolutions per day: 15.08170424
mean anomaly at epoch: 243.4297°
orbit number at epoch: 11640

The dashed part of the orbit path shows where the satellite is in the earth's shadow,  

DLR